User: anonymous   Login
Location: Unspecified
(0.0000°N, 0.0000°E)
Time: 22:25:55
(UTC+00:00)
Language:

TBA - TO BE ASSIGNED - Orbit

View from above orbital plane
View from above orbital plane
View from above satellite
View from above satellite

Ground track
Ground track

The orbit is defined by the following mean orbital elements,

1 69181U          26145.17824852 +.00000000 +00000-0 +23752-3 0 00005
2 69181  41.4669 101.7926 0110256 128.5701 232.5091 16.01258577    06
Epoch (UTC): 25 May 2026 04:16:40
Eccentricity: 0.0110256
inclination: 41.4669°
perigee height: 198 km
apogee height: 344 km
right ascension of ascending node: 101.7926°
argument of perigee: 128.5701°
revolutions per day: 16.01258577
mean anomaly at epoch: 232.5091°

The dashed part of the orbit path shows where the satellite is in the earth's shadow,  

DLR